Weather History for KCEZ - June, 2013

Change the Weather History Date:

Wednesday, June 19, 2013

  Actual Average Record
Temperature  
Mean Temperature 67 °F 66 °F  
Max Temperature 92 °F 86 °F 96 °F (2006)
Min Temperature 42 °F 45 °F 34 °F (1998)
Degree Days  
Heating Degree Days 0 1  
Month to date heating degree days 12 67  
Since 1 June heating degree days 12 67  
Since 1 July heating degree days 6406 6434  
Cooling Degree Days 2 2  
Month to date cooling degree days 57 26  
Year to date cooling degree days 57 31  
Since 1 June cooling degree days 57 26  
Growing Degree Days 17 (Base 50)    
Moisture  
Dew Point 14 °F    
Average Humidity 25    
Maximum Humidity 45    
Minimum Humidity 4    
Precipitation  
Precipitation 0.00 in 0.02 in 0.00 in (2015)
Month to date precipitation T 0.32  
Year to date precipitation 3.33 5.46  
Sea Level Pressure  
Sea Level Pressure 29.74 in    
Wind  
Wind Speed 11 mph (South)    
Max Wind Speed 29 mph    
Max Gust Speed 38 mph    
Visibility 10 miles    
Events      
T = Trace of Precipitation, MM = Missing Value Source: NWS Daily Summary

Daily Weather History Graph

Daily Weather History Graph

Search for Another Location

Airport or City:

Trip Planner

Search our weather history database for the weather conditions in past years. The results will help you decide how hot, cold, wet, or windy it might be!

Date:

Astronomy

Jun. 19, 2013 Rise Set
Actual Time 5:53 AM MDT 8:38 PM MDT
Civil Twilight 5:22 AM MDT 9:09 PM MDT
Nautical Twilight 4:44 AM MDT 9:47 PM MDT
Astronomical Twilight 4:00 AM MDT 10:31 PM MDT
Moon 4:37 PM MDT (6/19) 2:36 AM MDT (6/19)
Length of Visible Light 15h 46m
Length of Day
14h 44m
Waxing Gibbous, 81% of the Moon is Illuminated
Jun 19
Waxing Gibbous
Jun 23
Full
Jun 29
Last Quarter
Jul 8
New
Jul 15
First Quarter

Hourly Weather History & Observations

Time (MDT) Temp. Windchill Dew Point Humidity Pressure Visibility Wind Dir Wind Speed Gust Speed Precip Events Conditions
12:53 AM 52.0 °F - 21.9 °F 31% 29.76 in 10.0 mi East 6.9 mph - N/A   Clear
1:53 AM 53.1 °F - 21.0 °F 29% 29.75 in 10.0 mi East 6.9 mph - N/A   Clear
2:53 AM 53.1 °F - 21.9 °F 30% 29.73 in 10.0 mi ENE 6.9 mph - N/A   Clear
3:53 AM 50.0 °F - 21.9 °F 33% 29.75 in 10.0 mi NE 6.9 mph - N/A   Clear
4:53 AM 46.9 °F - 21.9 °F 37% 29.77 in 10.0 mi East 4.6 mph - N/A   Clear
5:53 AM 43.0 °F 41.3 °F 23.0 °F 45% 29.79 in 10.0 mi NE 3.5 mph - N/A   Clear
6:53 AM 48.0 °F - 24.1 °F 39% 29.80 in 10.0 mi Calm Calm - N/A   Clear
7:53 AM 59.0 °F - 28.0 °F 31% 29.78 in 10.0 mi Calm Calm - N/A   Clear
8:53 AM 70.0 °F - 28.0 °F 21% 29.81 in 10.0 mi ENE 3.5 mph - N/A   Clear
9:53 AM 77.0 °F - 16.0 °F 10% 29.80 in 10.0 mi SSW 8.1 mph - N/A   Clear
10:53 AM 80.1 °F - 8.1 °F 6% 29.79 in 10.0 mi SW 12.7 mph - N/A   Clear
11:53 AM 82.9 °F - 8.1 °F 6% 29.79 in 10.0 mi South 12.7 mph 26.5 mph N/A   Clear
12:53 PM 86.0 °F - 8.1 °F 5% 29.77 in 10.0 mi South 18.4 mph 26.5 mph N/A   Clear
1:53 PM 88.0 °F - 7.0 °F 5% 29.73 in 10.0 mi SSW 13.8 mph 24.2 mph N/A   Clear
2:53 PM 91.0 °F - 6.1 °F 4% 29.70 in 10.0 mi SSW 21.9 mph 33.4 mph N/A   Clear
3:53 PM 91.0 °F - 5.0 °F 4% 29.69 in 10.0 mi South 21.9 mph 33.4 mph N/A   Clear
4:53 PM 90.0 °F - 7.0 °F 4% 29.68 in 10.0 mi SSW 17.3 mph 34.5 mph N/A   Clear
5:31 PM 89.6 °F - 6.8 °F 4% 29.89 in 10.0 mi SW 20.7 mph 29.9 mph N/A   Clear
5:53 PM 88.0 °F - 3.0 °F 4% 29.68 in 10.0 mi WSW 16.1 mph 26.5 mph N/A   Clear
6:53 PM 87.1 °F - 1.9 °F 4% 29.68 in 10.0 mi SW 12.7 mph 26.5 mph N/A   Clear
7:53 PM 82.0 °F - 6.1 °F 6% 29.66 in 10.0 mi SW 13.8 mph 27.6 mph N/A   Clear
8:53 PM 73.0 °F - 9.0 °F 8% 29.66 in 10.0 mi SSW 10.4 mph - N/A   Clear
9:53 PM 69.1 °F - 9.0 °F 10% 29.68 in 10.0 mi South 10.4 mph - N/A   Clear
10:53 PM 68.0 °F - 12.9 °F 12% 29.70 in 10.0 mi South 9.2 mph - N/A   Clear
11:53 PM 63.0 °F - 16.0 °F 16% 29.71 in 10.0 mi SSW 10.4 mph - N/A   Clear